Location: Bj�rn�ya
(74.5000°N, 19.0000°E)
Time: 09:08:12
(UTC+02:00)

Envisat - Pass Details

Date: 31 January 2022
Orbit: 764 x 765 km, 98.2° (Epoch: 20 May)

Event Time Altitude Azimuth Distance (km) Brightness Sun altitude
Rises 07:01:47 0° 37° (NE) 3,246 6.5 -12.5°
Reaches altitude 10° 07:04:06 10° 35° (NE) 2,318 5.7 -12.4°
Maximum altitude 07:09:10 68° 315° (NW) 831 3.0 -12.1°
Drops below altitude 10° 07:14:14 10° 233° (SW) 2,312 5.2 -11.8°
Sets 07:16:32 0° 231° (SW) 3,237 6.0 -11.6°
